Weather Roundup
Issued by NWS

Home | Current Version | Previous Version | Text Only | Print | Product List | Glossary On
Versions: 1 2 3 4 5 6 7 8 9 10 11 12 13 14 15 16 17 18 19 20 21 22 23 24 25 26 27 28 29 30 31 32 33 34 35 36 37 38 39 40 41 42 43 44 45 46 47 48 49 50
000
NZUS93 KARX 251310
HRRWXR

CURRENT HOURLY OBSERVATIONS ACROSS
MUCH OF THE UPPER MISSISSIPPI VALLEY
NATIONAL WEATHER SERVICE LA CROSSE WI
800 AM CDT SAT APR 25 2015


...SOUTHEAST MINNESOTA...


CITY           SKY/WX    TMP DP  RH WIND       PRES   REMARKS
ROCHESTER      CLOUDY    41  36  82 E14       29.79S
ROCHESTER/MAYO CLOUDY    40  37  90 E12G17    29.80S WCI  33
WINONA         NOT AVBL
AUSTIN         CLOUDY    41  36  81 E15       29.75F
ALBERT LEA     CLOUDY    43  37  81 E14G22    29.75S
DODGE CENTER   CLOUDY    41  37  87 E16       29.78S
PRESTON        CLOUDY    39  35  83 E14       29.78F WCI  31
OWATONNA       PTSUNNY   43  37  81 E15G24    29.78R
FARIBAULT      CLOUDY    43  37  81 E10G20    29.80R
$$

...ELSEWHERE IN MINNESOTA...


CITY           SKY/WX    TMP DP  RH WIND       PRES   REMARKS
MINNEAPOLIS    CLOUDY    43  37  79 E10       29.83R
INTNL FALLS    CLOUDY    38  18  44 E7        29.97S WCI  33
DULUTH         CLOUDY    34  24  67 E10       29.93S WCI  26
RED WING       CLOUDY    43  36  75 E13       29.82F
REDWOOD FALLS  CLOUDY    44  38  79 E14G24    29.77R
MANKATO        CLOUDY    43  34  70 E14G21    29.78R
WORTHINGTON    CLOUDY    43  36  75 E17       29.73R
FAIRMONT       CLOUDY    43  12  28 E15       29.74R
$$

...SOUTHWEST WISCONSIN...


CITY           SKY/WX    TMP DP  RH WIND       PRES   REMARKS
LA CROSSE      CLOUDY    42  36  79 NE7       29.83S
PRAIRIE DU CHI CLOUDY    42  34  72 NE12G18   29.77F
BOSCOBEL       CLOUDY    43  35  73 NE10G18   29.81S
LONE ROCK      CLOUDY    42  35  76 E14       29.83R
PLATTEVILLE    CLOUDY    42  37  83 NE13      29.76S
FORT MC COY    CLOUDY    40  35  83 E13G20    29.86S WCI  32
CAMP DOUGLAS   CLOUDY    39  39 100 E10       29.86S WCI  32
VIROQUA        CLOUDY    39  37  92 E16G23    29.81S WCI  30
WIS DELLS      CLOUDY    39  35  85 E13G20    29.85S WCI  31
$$

...ELSEWHERE IN WISCONSIN...


CITY           SKY/WX    TMP DP  RH WIND       PRES   REMARKS
MILWAUKEE      CLOUDY    40  35  83 NE13      29.87S WCI  32
MADISON        CLOUDY    41  35  79 E14       29.84R
GREEN BAY      CLOUDY    41  26  55 E12       29.95R
EAU CLAIRE     CLOUDY    41  27  57 E12       29.87S
BLACK RVR FLS  CLOUDY    40  35  81 E8        29.87R WCI  35
MEDFORD        CLOUDY    38  21  50 E10       29.90R WCI  30
WAUSAU         CLOUDY    38  19  46 E9        29.90S WCI  31
WIS RAPIDS     CLOUDY    39  26  59 E12       29.90S WCI  32
MARSHFIELD     CLOUDY    39  25  57 E13       29.89R WCI  31
RICE LAKE      SUNNY     42  26  53 E16       29.89S
$$

...NORTHEAST IOWA...


CITY           SKY/WX    TMP DP  RH WIND       PRES   REMARKS
DECORAH        CLOUDY    41  36  81 E13G18    29.76S
MASON CITY     CLOUDY    41  37  86 E16       29.73R
CHARLES CITY   CLOUDY    41  39  93 E20       29.73R
OELWEIN        CLOUDY    41  37  87 E20       29.72S
$$

...ELSEWHERE IN IOWA...


CITY           SKY/WX    TMP DP  RH WIND       PRES   REMARKS
DES MOINES     LGT RAIN  45  42  89 NE17      29.60R FOG
IOWA CITY      RAIN      43  41  93 NE16G22   29.66F FOG
FORT DODGE     CLOUDY    43  37  81 E18       29.68R
$$

...NORTHERN ILLINOIS...


CITY           SKY/WX    TMP DP  RH WIND       PRES   REMARKS
CHICAGO-OHARE  LGT RAIN  44  38  79 E12G18    29.80R
CHICAGO-MIDWAY LGT RAIN  46  40  79 E12       29.80S
MOLINE         LGT RAIN  44  41  89 E20G26    29.67F FOG
ROCKFORD       CLOUDY    45  36  70 E14G25    29.79S
PEORIA         LGT RAIN  49  45  86 NE7       29.67R FOG
$$

NOTE: "FAIR" INDICATES FEW OR NO CLOUDS BELOW 12,000 FEET WITH NO
SIGNIFICANT WEATHER AND/OR OBSTRUCTIONS TO VISIBILITY. WIND
SPEEDS ARE IN MILES-PER-HOUR.



USA.gov is the U.S. government's official web portal to all federal, state and local government web resources and services.